VE6CPK-13 Weather Reports


time (UTC)temp
F
wind
direction
speed
knots
gust
knots
rain 1hr
in
rain 24hr
in
rain mn
in
humidity
%
barometer
mb
20260504130333 40 9 0.0 10.4 0.00 0.01 0.01 59 1010.8
20260504110333 42 9 0.0 10.4 0.00 0.01 0.01 64 1010.5
20260504100333 44 9 0.0 10.4 0.00 0.01 0.01 73 1009.6
20260504081834 46 9 0.0 10.4 0.00 0.01 0.01 70 1009.7
20260504081332 46 9 0.0 10.4 0.00 0.01 0.01 70 1009.7
20260504080831 46 9 0.0 10.4 0.01 0.01 0.01 70 1009.7
20260504080333 46 9 0.0 10.4 0.01 0.01 0.01 70 1009.8
20260504070332 47 7 1.7 10.4 0.00 0.00 0.00 66 1010.2
20260504050331 53 354 4.3 13.0 0.00 0.00 0.00 45 1008.8
20260504045831 53 32 0.9 13.0 0.00 0.00 0.00 44 1008.8
20260504045332 53 357 1.7 13.0 0.00 0.00 0.00 44 1008.7
20260504044657 53 0 1.7 13.0 0.00 0.00 0.00 44 1008.6
20260504044155 53 15 0.9 13.0 0.00 0.00 0.00 43 1008.6
20260504043657 53 22 1.7 13.0 0.00 0.00 0.00 43 1008.4
20260504043157 54 1 1.7 13.0 0.00 0.00 0.00 40 1008.3
20260504042657 54 1 1.7 13.0 0.00 0.00 0.00 40 1008.2
20260504042156 54 4 2.6 13.0 0.00 0.00 0.00 39 1008.2
20260504041657 54 11 2.6 13.0 0.00 0.00 0.00 38 1008.2
20260504041157 54 356 0.9 13.0 0.00 0.00 0.00 38 1008.2
20260504040656 54 23 1.7 13.0 0.00 0.00 0.00 38 1008.1
20260504040156 55 9 0.9 13.0 0.00 0.00 0.00 37 1008.0
20260504035656 55 356 2.6 13.0 0.00 0.00 0.00 37 1007.9
20260504035155 55 23 2.6 13.0 0.00 0.00 0.00 37 1007.7
20260504034655 55 5 2.6 13.0 0.00 0.00 0.00 37 1007.5
20260504034155 55 27 1.7 13.0 0.00 0.00 0.00 37 1007.4
20260504033655 55 8 2.6 13.0 0.00 0.00 0.00 36 1007.2
20260504033155 56 6 1.7 13.0 0.00 0.00 0.00 36 1007.0
20260504032656 56 4 4.3 13.0 0.00 0.00 0.00 36 1006.6
20260504032156 56 21 4.3 13.0 0.00 0.00 0.00 36 1006.5
20260504031656 57 23 4.3 13.0 0.00 0.00 0.00 36 1006.5
20260504031156 57 6 5.2 13.0 0.00 0.00 0.00 36 1006.2
20260504030656 57 21 0.9 13.0 0.00 0.00 0.00 36 1006.0
20260504030156 57 5 2.6 13.0 0.00 0.00 0.00 36 1005.9
20260504025656 57 20 2.6 13.0 0.00 0.00 0.00 35 1005.7
20260504025155 58 14 1.7 13.0 0.00 0.00 0.00 35 1005.6
20260504024655 58 16 1.7 13.0 0.00 0.00 0.00 35 1005.5
20260504024154 58 28 1.7 13.0 0.00 0.00 0.00 35 1005.5
20260504023656 58 33 2.6 13.0 0.00 0.00 0.00 35 1005.3
20260504023156 58 13 2.6 13.0 0.00 0.00 0.00 35 1005.3
20260504022656 58 7 2.6 13.0 0.00 0.00 0.00 35 1005.2
20260504022156 59 19 2.6 13.0 0.00 0.00 0.00 34 1005.1
20260504021656 59 354 2.6 13.0 0.00 0.00 0.00 34 1005.1
20260504021156 59 16 1.7 13.0 0.00 0.00 0.00 34 1005.0
20260504020656 60 3 4.3 13.0 0.00 0.00 0.00 34 1004.9
20260504020156 60 26 4.3 13.0 0.00 0.00 0.00 33 1004.7
20260504015655 61 20 4.3 13.0 0.00 0.00 0.00 33 1004.7
20260504015155 62 2 5.2 13.0 0.00 0.00 0.00 33 1004.5
20260504014655 62 3 1.7 13.0 0.00 0.00 0.00 33 1004.2
20260504014155 62 4 1.7 13.0 0.00 0.00 0.00 33 1004.0
20260504013655 63 30 4.3 13.0 0.00 0.00 0.00 33 1003.9
20260504013155 63 357 2.6 13.0 0.00 0.00 0.00 33 1003.9
20260504012655 63 11 2.6 13.0 0.00 0.00 0.00 32 1003.8
20260504012154 64 17 2.6 13.0 0.00 0.00 0.00 32 1003.7
20260504011654 64 12 1.7 13.0 0.00 0.00 0.00 32 1003.7
20260504011154 64 14 2.6 13.0 0.00 0.00 0.00 32 1003.5
20260504010656 65 11 4.3 13.0 0.00 0.00 0.00 32 1003.4
20260504010156 65 22 5.2 13.0 0.00 0.00 0.00 32 1003.4
20260504005655 65 19 2.6 13.0 0.00 0.00 0.00 33 1003.3
20260504005155 65 26 4.3 13.0 0.00 0.00 0.00 33 1003.2
20260504004656 65 19 4.3 13.0 0.00 0.00 0.00 33 1003.2
20260504004155 65 7 4.3 13.0 0.00 0.00 0.00 32 1003.1
20260504003655 65 12 1.7 13.0 0.00 0.00 0.00 33 1003.0
20260504003155 65 26 5.2 13.0 0.00 0.00 0.00 32 1003.1
20260504002654 66 6 4.3 13.0 0.00 0.00 0.00 32 1003.0
20260504002154 66 26 5.2 13.0 0.00 0.00 0.00 32 1002.9
20260504001654 66 345 1.7 13.0 0.00 0.00 0.00 32 1002.9
20260504001154 66 17 5.2 13.0 0.00 0.00 0.00 31 1002.9
20260504000656 66 18 2.6 13.0 0.00 0.00 0.00 31 1002.8
20260504000156 66 358 2.6 13.0 0.00 0.00 0.00 31 1002.7
20260503235655 66 19 4.3 13.0 0.00 0.00 0.00 31 1002.7
20260503235155 66 18 4.3 13.0 0.00 0.00 0.00 30 1002.6
20260503234655 66 358 4.3 13.0 0.00 0.00 0.00 31 1002.7
20260503234137 66 20 2.6 13.0 0.00 0.00 0.00 31 1002.5
20260503233638 67 17 4.3 13.0 0.00 0.00 0.00 30 1002.7
20260503233138 67 21 4.3 13.0 0.00 0.00 0.00 30 1002.6
20260503232638 67 22 2.6 13.0 0.00 0.00 0.00 30 1002.4
20260503232137 67 21 5.2 13.0 0.00 0.00 0.00 29 1002.4
20260503231639 67 16 2.6 13.0 0.00 0.00 0.00 30 1002.4
20260503231138 68 7 4.3 13.0 0.00 0.00 0.00 29 1002.5
20260503230637 69 17 5.2 13.0 0.00 0.00 0.00 28 1002.4
20260503230137 69 22 2.6 13.0 0.00 0.00 0.00 28 1002.3
20260503225637 70 11 4.3 13.0 0.00 0.00 0.00 27 1002.2
20260503225138 71 23 4.3 13.0 0.00 0.00 0.00 27 1002.2
20260503224638 71 349 2.6 13.0 0.00 0.00 0.00 26 1002.2
20260503224138 71 23 2.6 13.0 0.00 0.00 0.00 24 1002.0
20260503223637 71 16 1.7 13.0 0.00 0.00 0.00 24 1002.0
20260503223137 71 18 4.3 13.0 0.00 0.00 0.00 24 1002.1
20260503222637 71 330 1.7 13.0 0.00 0.00 0.00 24 1002.1
20260503222137 72 15 2.6 13.0 0.00 0.00 0.00 24 1002.0
20260503221637 71 13 0.9 13.0 0.00 0.00 0.00 24 1001.9
20260503221137 71 15 2.6 13.0 0.00 0.00 0.00 24 1002.1
20260503220637 71 32 1.7 13.0 0.00 0.00 0.00 24 1002.2
20260503220138 71 4 4.3 13.0 0.00 0.00 0.00 24 1002.2
20260503215638 71 342 0.9 13.0 0.00 0.00 0.00 24 1002.2
20260503215138 71 24 2.6 13.0 0.00 0.00 0.00 24 1002.3
20260503214638 71 345 1.7 13.0 0.00 0.00 0.00 25 1002.3
20260503214138 71 14 4.3 13.0 0.00 0.00 0.00 25 1002.3
20260503213637 71 346 1.7 13.0 0.00 0.00 0.00 25 1002.3
20260503213137 71 10 2.6 13.0 0.00 0.00 0.00 24 1002.4
20260503212637 71 9 4.3 13.0 0.00 0.00 0.00 24 1002.4
20260503212137 71 32 2.6 13.0 0.00 0.00 0.00 24 1002.4
20260503211637 71 21 2.6 13.0 0.00 0.00 0.00 24 1002.4
20260503211137 71 344 0.9 13.0 0.00 0.00 0.00 24 1002.5
20260503210637 71 36 1.7 13.0 0.00 0.00 0.00 24 1002.5
20260503210137 71 26 2.6 13.0 0.00 0.00 0.00 24 1002.7
20260503205636 72 7 1.7 13.0 0.00 0.00 0.00 24 1002.7
20260503205138 72 17 1.7 13.0 0.00 0.00 0.00 23 1002.7
20260503204638 73 348 2.6 13.0 0.00 0.00 0.00 22 1002.8
20260503204138 73 106 0.0 7.8 0.00 0.00 0.00 22 1002.8
20260503203638 73 50 1.7 7.8 0.00 0.00 0.00 21 1002.9
20260503203137 73 192 0.0 7.8 0.00 0.00 0.00 21 1003.1
20260503202636 73 205 0.0 7.8 0.00 0.00 0.00 21 1003.0
20260503202137 74 16 0.0 7.8 0.00 0.00 0.00 21 1003.0
20260503201638 74 37 0.0 7.8 0.00 0.00 0.00 20 1003.1
20260503201138 74 49 0.9 7.8 0.00 0.00 0.00 21 1003.2
20260503200638 74 81 0.9 7.8 0.00 0.00 0.00 21 1003.3
20260503200138 73 28 0.0 7.8 0.00 0.00 0.00 21 1003.4
20260503195637 73 8 0.0 7.8 0.00 0.00 0.00 21 1003.5
20260503195137 73 5 0.0 7.8 0.00 0.00 0.00 23 1003.6
20260503194637 72 5 0.0 7.8 0.00 0.00 0.00 23 1003.7
20260503194137 72 5 0.0 7.8 0.00 0.00 0.00 22 1003.7
20260503193637 72 355 0.9 7.8 0.00 0.00 0.00 21 1003.8
20260503193137 72 71 0.0 7.8 0.00 0.00 0.00 22 1003.9
20260503192636 72 22 0.9 7.8 0.00 0.00 0.00 23 1003.9
20260503192136 72 24 0.9 7.8 0.00 0.00 0.00 22 1004.0
20260503191636 72 315 0.0 7.8 0.00 0.00 0.00 23 1004.1
20260503191136 72 2 0.0 7.8 0.00 0.00 0.00 22 1004.1
20260503190637 71 5 1.7 7.8 0.00 0.00 0.00 22 1004.4
20260503190137 71 13 0.0 7.8 0.00 0.00 0.00 23 1004.4
20260503185637 71 96 0.0 7.8 0.00 0.00 0.00 23 1004.5
20260503185137 71 46 0.0 7.8 0.00 0.00 0.00 23 1004.6
20260503184637 71 19 0.9 7.8 0.00 0.00 0.00 22 1004.7
20260503184137 71 345 0.0 7.8 0.00 0.00 0.00 22 1004.8
20260503183637 70 13 0.0 7.8 0.00 0.00 0.00 22 1004.8
20260503183046 70 0 0.0 7.8 0.00 0.00 0.00 23 1004.9
20260503182546 70 27 0.9 7.8 0.00 0.00 0.00 24 1005.0
20260503182046 70 220 0.0 7.8 0.00 0.00 0.00 24 1005.1
20260503181546 70 5 1.7 7.8 0.00 0.00 0.00 24 1005.1
20260503181046 69 22 0.9 7.8 0.00 0.00 0.00 25 1005.1
20260503180548 69 5 0.0 7.8 0.00 0.00 0.00 25 1005.3
20260503180048 69 16 0.0 7.8 0.00 0.00 0.00 27 1005.4
20260503175547 68 5 0.0 7.8 0.00 0.00 0.00 27 1005.5
20260503175047 68 12 0.9 7.8 0.00 0.00 0.00 26 1005.6
20260503174547 68 20 0.9 7.8 0.00 0.00 0.00 26 1005.8
20260503174051 68 10 0.9 7.8 0.00 0.00 0.00 27 1005.9
20260503173551 68 16 1.7 7.8 0.00 0.00 0.00 27 1005.9
20260503173051 68 357 1.7 7.8 0.00 0.00 0.00 26 1006.0
20260503172550 68 23 0.0 7.8 0.00 0.00 0.00 27 1006.1
20260503172050 68 13 0.9 5.2 0.00 0.00 0.00 27 1006.1
20260503171550 67 5 0.9 5.2 0.00 0.00 0.00 27 1006.1
20260503171050 67 69 0.0 4.3 0.00 0.00 0.00 28 1006.1
20260503170550 67 27 0.9 4.3 0.00 0.00 0.00 27 1006.1
20260503150551 55 167 0.0 1.7 0.00 0.00 0.00 41 1007.1